| time (UTC) | temp F | wind direction | speed MPH | gust MPH | rain 1hr in | rain 24hr in | rain mn in | humidity % | barometer mb |
| 20260503234532 | 56 | 190 | 0.0 | 0.0 | 0.00 | 0.00 | 0.00 | 37 | 1015.1 |
| 20260503234031 | 57 | 259 | 1.0 | 2.0 | 0.00 | 0.00 | 0.00 | 36 | 1014.8 |
| 20260503233527 | 57 | 163 | 0.0 | 0.0 | 0.00 | 0.00 | 0.00 | 36 | 1014.9 |
| 20260503233023 | 58 | 89 | 2.0 | 3.0 | 0.00 | 0.00 | 0.00 | 35 | 1014.7 |
| 20260503232520 | 58 | 343 | 2.0 | 2.0 | 0.00 | 0.00 | 0.00 | 34 | 1014.8 |
| 20260503232018 | 59 | 21 | 4.0 | 6.0 | 0.00 | 0.00 | 0.00 | 34 | 1014.8 |
| 20260503231515 | 59 | 167 | 1.0 | 1.0 | 0.00 | 0.00 | 0.00 | 33 | 1014.6 |
| 20260503231012 | 59 | 212 | 1.0 | 1.0 | 0.00 | 0.00 | 0.00 | 34 | 1014.7 |
| 20260503230508 | 59 | 9 | 4.0 | 4.0 | 0.00 | 0.00 | 0.00 | 33 | 1014.7 |
| 20260503230006 | 60 | 246 | 4.0 | 4.0 | 0.00 | 0.00 | 0.00 | 32 | 1014.4 |
| 20260503225503 | 60 | 169 | 2.0 | 3.0 | 0.00 | 0.00 | 0.00 | 32 | 1014.4 |
| 20260503224958 | 60 | 210 | 1.0 | 1.0 | 0.00 | 0.00 | 0.00 | 33 | 1014.4 |
| 20260503224455 | 60 | 258 | 1.0 | 1.0 | 0.00 | 0.00 | 0.00 | 31 | 1014.5 |
| 20260503223953 | 60 | 303 | 1.0 | 1.0 | 0.00 | 0.00 | 0.00 | 32 | 1014.4 |
| 20260503223451 | 60 | 330 | 5.0 | 7.0 | 0.00 | 0.00 | 0.00 | 31 | 1014.5 |
| 20260503222946 | 60 | 211 | 1.0 | 2.0 | 0.00 | 0.00 | 0.00 | 33 | 1014.3 |
| 20260503222445 | 60 | 195 | 4.0 | 7.0 | 0.00 | 0.00 | 0.00 | 31 | 1014.4 |
| 20260503221942 | 59 | 58 | 6.0 | 8.0 | 0.00 | 0.00 | 0.00 | 31 | 1014.4 |
| 20260503221440 | 60 | 82 | 2.0 | 3.0 | 0.00 | 0.00 | 0.00 | 32 | 1014.4 |
| 20260503220937 | 60 | 191 | 2.0 | 3.0 | 0.00 | 0.00 | 0.00 | 32 | 1014.4 |
| 20260503220433 | 60 | 282 | 6.0 | 8.0 | 0.00 | 0.00 | 0.00 | 31 | 1014.5 |
| 20260503215931 | 60 | 264 | 3.0 | 4.0 | 0.00 | 0.00 | 0.00 | 32 | 1014.5 |
| 20260503215427 | 60 | 306 | 3.0 | 3.0 | 0.00 | 0.00 | 0.00 | 31 | 1014.4 |
| 20260503214925 | 59 | 313 | 5.0 | 7.0 | 0.00 | 0.00 | 0.00 | 31 | 1014.4 |
| 20260503214423 | 60 | 246 | 2.0 | 4.0 | 0.00 | 0.00 | 0.00 | 31 | 1014.6 |
| 20260503213920 | 60 | 271 | 5.0 | 6.0 | 0.00 | 0.00 | 0.00 | 31 | 1014.3 |
| 20260503213418 | 59 | 260 | 4.0 | 6.0 | 0.00 | 0.00 | 0.00 | 31 | 1014.2 |
| 20260503212914 | 59 | 16 | 4.0 | 6.0 | 0.00 | 0.00 | 0.00 | 31 | 1014.2 |
| 20260503212412 | 59 | 24 | 2.0 | 2.0 | 0.00 | 0.00 | 0.00 | 33 | 1014.2 |
| 20260503211909 | 60 | 201 | 2.0 | 2.0 | 0.00 | 0.00 | 0.00 | 33 | 1014.1 |
| 20260503211405 | 59 | 214 | 2.0 | 2.0 | 0.00 | 0.00 | 0.00 | 33 | 1014.2 |
| 20260503210901 | 59 | 307 | 5.0 | 9.0 | 0.00 | 0.00 | 0.00 | 35 | 1014.2 |
| 20260503210358 | 59 | 348 | 9.0 | 14.0 | 0.00 | 0.00 | 0.00 | 33 | 1014.1 |
| 20260503205853 | 59 | 171 | 1.0 | 1.0 | 0.00 | 0.00 | 0.00 | 34 | 1014.3 |
| 20260503205350 | 58 | 318 | 4.0 | 4.0 | 0.00 | 0.00 | 0.00 | 34 | 1014.2 |
| 20260503204846 | 59 | 193 | 4.0 | 8.0 | 0.00 | 0.00 | 0.00 | 34 | 1014.2 |
| 20260503204343 | 59 | 262 | 3.0 | 4.0 | 0.00 | 0.00 | 0.00 | 34 | 1014.4 |
| 20260503203841 | 59 | 327 | 2.0 | 3.0 | 0.00 | 0.00 | 0.00 | 35 | 1014.2 |
| 20260503203338 | 58 | 246 | 5.0 | 8.0 | 0.00 | 0.00 | 0.00 | 34 | 1014.3 |
| 20260503202835 | 58 | 293 | 4.0 | 4.0 | 0.00 | 0.00 | 0.00 | 34 | 1014.2 |
| 20260503202333 | 58 | 347 | 5.0 | 9.0 | 0.00 | 0.00 | 0.00 | 34 | 1014.3 |
| 20260503201831 | 60 | 346 | 4.0 | 6.0 | 0.00 | 0.00 | 0.00 | 34 | 1014.6 |
| 20260503201328 | 60 | 346 | 4.0 | 6.0 | 0.00 | 0.00 | 0.00 | 34 | 1014.6 |
| 20260503200825 | 59 | 132 | 1.0 | 2.0 | 0.00 | 0.00 | 0.00 | 34 | 1014.3 |
| 20260503200321 | 59 | 113 | 3.0 | 6.0 | 0.00 | 0.00 | 0.00 | 36 | 1014.6 |
| 20260503195819 | 59 | 301 | 9.0 | 11.0 | 0.00 | 0.00 | 0.00 | 34 | 1014.3 |
| 20260503195315 | 59 | 289 | 3.0 | 3.0 | 0.00 | 0.00 | 0.00 | 38 | 1014.3 |
| 20260503194813 | 58 | 214 | 2.0 | 3.0 | 0.00 | 0.00 | 0.00 | 35 | 1014.7 |
| 20260503194308 | 58 | 246 | 4.0 | 7.0 | 0.00 | 0.00 | 0.00 | 36 | 1014.4 |
| 20260503193804 | 58 | 246 | 4.0 | 7.0 | 0.00 | 0.00 | 0.00 | 36 | 1014.4 |
| 20260503193300 | 58 | 210 | 4.0 | 6.0 | 0.00 | 0.00 | 0.00 | 35 | 1014.6 |
| 20260503192756 | 57 | 205 | 1.0 | 2.0 | 0.00 | 0.00 | 0.00 | 40 | 1014.4 |
| 20260503192252 | 57 | 12 | 4.0 | 7.0 | 0.00 | 0.00 | 0.00 | 37 | 1014.9 |
| 20260503191749 | 57 | 224 | 1.0 | 2.0 | 0.00 | 0.00 | 0.00 | 39 | 1014.8 |
| 20260503191246 | 57 | 322 | 4.0 | 4.0 | 0.00 | 0.00 | 0.00 | 39 | 1014.8 |
| 20260503190743 | 56 | 357 | 6.0 | 7.0 | 0.00 | 0.00 | 0.00 | 37 | 1014.9 |
| 20260503190239 | 56 | 234 | 4.0 | 6.0 | 0.00 | 0.00 | 0.00 | 40 | 1015.1 |
| 20260503185731 | 56 | 321 | 6.0 | 9.0 | 0.00 | 0.00 | 0.00 | 39 | 1015.3 |
| 20260503185226 | 56 | 321 | 8.0 | 10.0 | 0.00 | 0.00 | 0.00 | 38 | 1015.1 |
| 20260503184721 | 55 | 200 | 2.0 | 3.0 | 0.00 | 0.00 | 0.00 | 40 | 1015.3 |
| 20260503184218 | 55 | 157 | 2.0 | 3.0 | 0.00 | 0.00 | 0.00 | 42 | 1015.1 |
| 20260503183714 | 54 | 320 | 4.0 | 7.0 | 0.00 | 0.00 | 0.00 | 41 | 1015.2 |
| 20260503183212 | 55 | 0 | 4.0 | 7.0 | 0.00 | 0.00 | 0.00 | 41 | 1015.3 |
| 20260503182710 | 55 | 75 | 2.0 | 2.0 | 0.00 | 0.00 | 0.00 | 42 | 1015.4 |
| 20260503182208 | 54 | 259 | 4.0 | 10.0 | 0.00 | 0.00 | 0.00 | 42 | 1015.1 |
| 20260503181704 | 55 | 8 | 4.0 | 6.0 | 0.00 | 0.00 | 0.00 | 40 | 1015.5 |
| 20260503181201 | 54 | 294 | 5.0 | 8.0 | 0.00 | 0.00 | 0.00 | 41 | 1015.3 |
| 20260503180658 | 54 | 233 | 6.0 | 10.0 | 0.00 | 0.00 | 0.00 | 40 | 1015.2 |
| 20260503180156 | 53 | 310 | 1.0 | 1.0 | 0.00 | 0.00 | 0.00 | 42 | 1015.2 |
| 20260503175653 | 53 | 15 | 4.0 | 6.0 | 0.00 | 0.00 | 0.00 | 42 | 1015.2 |
| 20260503175150 | 54 | 22 | 3.0 | 3.0 | 0.00 | 0.00 | 0.00 | 41 | 1015.3 |
| 20260503174646 | 54 | 280 | 7.0 | 11.0 | 0.00 | 0.00 | 0.00 | 41 | 1015.2 |
| 20260503174144 | 56 | 272 | 4.0 | 6.0 | 0.00 | 0.00 | 0.00 | 38 | 1015.1 |
| 20260503173639 | 55 | 47 | 4.0 | 6.0 | 0.00 | 0.00 | 0.00 | 43 | 1015.2 |
| 20260503173136 | 54 | 220 | 4.0 | 6.0 | 0.00 | 0.00 | 0.00 | 41 | 1015.4 |
| 20260503172632 | 55 | 321 | 6.0 | 9.0 | 0.00 | 0.00 | 0.00 | 39 | 1015.0 |
| 20260503172129 | 55 | 332 | 5.0 | 7.0 | 0.00 | 0.00 | 0.00 | 40 | 1015.2 |
| 20260503171625 | 53 | 17 | 2.0 | 2.0 | 0.00 | 0.00 | 0.00 | 41 | 1015.4 |
| 20260503171123 | 54 | 337 | 9.0 | 13.0 | 0.00 | 0.00 | 0.00 | 39 | 1015.3 |
| 20260503170620 | 55 | 325 | 6.0 | 8.0 | 0.00 | 0.00 | 0.00 | 39 | 1015.3 |
| 20260503170116 | 54 | 6 | 5.0 | 7.0 | 0.00 | 0.00 | 0.00 | 39 | 1015.2 |
| 20260503151012 | 51 | 292 | 6.0 | 8.0 | 0.00 | 0.00 | 0.00 | 45 | 1015.7 |
| 20260503150508 | 52 | 254 | 1.0 | 2.0 | 0.00 | 0.00 | 0.00 | 50 | 1015.8 |
| 20260503131350 | 49 | 109 | 4.0 | 6.0 | 0.00 | 0.00 | 0.00 | 53 | 1015.8 |
| 20260503130847 | 49 | 13 | 3.0 | 4.0 | 0.00 | 0.00 | 0.00 | 54 | 1015.8 |
| 20260503130345 | 49 | 143 | 1.0 | 1.0 | 0.00 | 0.00 | 0.00 | 55 | 1015.8 |
| 20260503110739 | 44 | 312 | 1.0 | 1.0 | 0.00 | 0.00 | 0.00 | 61 | 1015.5 |
| 20260503110236 | 44 | 141 | 1.0 | 1.0 | 0.00 | 0.00 | 0.00 | 61 | 1015.3 |
| 20260503100202 | 43 | 164 | 0.0 | 1.0 | 0.00 | 0.00 | 0.00 | 63 | 1014.9 |
| 20260503090121 | 44 | 155 | 2.0 | 3.0 | 0.00 | 0.00 | 0.00 | 62 | 1014.8 |
| 20260503081556 | 44 | 160 | 0.0 | 0.0 | 0.00 | 0.00 | 0.00 | 62 | 1014.7 |
| 20260503081053 | 44 | 120 | 0.0 | 0.0 | 0.00 | 0.00 | 0.00 | 62 | 1014.8 |
| 20260503080549 | 44 | 301 | 1.0 | 2.0 | 0.00 | 0.00 | 0.00 | 62 | 1014.9 |
| 20260503072523 | 45 | 15 | 5.0 | 6.0 | 0.00 | 0.00 | 0.00 | 59 | 1014.7 |
| 20260503072020 | 45 | 312 | 2.0 | 2.0 | 0.00 | 0.00 | 0.00 | 59 | 1014.5 |
| 20260503071517 | 45 | 19 | 2.0 | 2.0 | 0.00 | 0.00 | 0.00 | 59 | 1014.7 |
| 20260503071014 | 46 | 237 | 1.0 | 1.0 | 0.00 | 0.00 | 0.00 | 60 | 1014.6 |
| 20260503070511 | 46 | 172 | 0.0 | 0.0 | 0.00 | 0.00 | 0.00 | 58 | 1014.8 |
| 20260503054929 | 48 | 195 | 1.0 | 1.0 | 0.00 | 0.00 | 0.00 | 55 | 1015.0 |
| 20260503054425 | 48 | 351 | 3.0 | 3.0 | 0.00 | 0.00 | 0.00 | 54 | 1015.1 |
| 20260503053923 | 48 | 147 | 1.0 | 1.0 | 0.00 | 0.00 | 0.00 | 55 | 1015.0 |
| 20260503053421 | 48 | 154 | 1.0 | 1.0 | 0.00 | 0.00 | 0.00 | 55 | 1015.2 |
| 20260503052916 | 48 | 153 | 0.0 | 0.0 | 0.00 | 0.00 | 0.00 | 55 | 1015.3 |
| 20260503052414 | 48 | 148 | 0.0 | 0.0 | 0.00 | 0.00 | 0.00 | 55 | 1015.4 |
| 20260503051910 | 48 | 350 | 1.0 | 2.0 | 0.00 | 0.00 | 0.00 | 54 | 1015.5 |
| 20260503051406 | 48 | 228 | 3.0 | 4.0 | 0.00 | 0.00 | 0.00 | 53 | 1015.6 |
| 20260503050904 | 48 | 180 | 0.0 | 0.0 | 0.00 | 0.00 | 0.00 | 54 | 1015.6 |
| 20260503050359 | 48 | 17 | 6.0 | 8.0 | 0.00 | 0.00 | 0.00 | 52 | 1015.5 |
| 20260503045857 | 48 | 96 | 0.0 | 1.0 | 0.00 | 0.00 | 0.00 | 54 | 1015.5 |
| 20260503045355 | 49 | 172 | 1.0 | 1.0 | 0.00 | 0.00 | 0.00 | 52 | 1015.6 |
| 20260503044851 | 49 | 126 | 1.0 | 1.0 | 0.00 | 0.00 | 0.00 | 53 | 1015.6 |
| 20260503044348 | 49 | 339 | 2.0 | 2.0 | 0.00 | 0.00 | 0.00 | 54 | 1015.8 |
| 20260503043845 | 49 | 104 | 1.0 | 2.0 | 0.00 | 0.00 | 0.00 | 53 | 1015.8 |
| 20260503043342 | 49 | 149 | 0.0 | 0.0 | 0.00 | 0.00 | 0.00 | 56 | 1015.6 |
| 20260503042838 | 49 | 157 | 0.0 | 0.0 | 0.00 | 0.00 | 0.00 | 54 | 1015.9 |
| 20260503042335 | 49 | 151 | 0.0 | 0.0 | 0.00 | 0.00 | 0.00 | 55 | 1016.0 |
| 20260503041831 | 49 | 131 | 2.0 | 2.0 | 0.00 | 0.00 | 0.00 | 53 | 1015.9 |
| 20260503041329 | 50 | 225 | 0.0 | 1.0 | 0.00 | 0.00 | 0.00 | 54 | 1015.8 |
| 20260503040826 | 50 | 31 | 5.0 | 6.0 | 0.00 | 0.00 | 0.00 | 53 | 1015.9 |
| 20260503040324 | 50 | 342 | 2.0 | 3.0 | 0.00 | 0.00 | 0.00 | 53 | 1015.9 |
| 20260503035820 | 50 | 146 | 0.0 | 0.0 | 0.00 | 0.05 | 0.05 | 54 | 1015.7 |
| 20260503035317 | 50 | 168 | 0.0 | 0.0 | 0.00 | 0.05 | 0.05 | 53 | 1015.8 |
| 20260503034815 | 50 | 152 | 0.0 | 0.0 | 0.00 | 0.05 | 0.05 | 53 | 1015.7 |
| 20260503034312 | 50 | 155 | 0.0 | 1.0 | 0.00 | 0.05 | 0.05 | 52 | 1015.4 |
| 20260503033809 | 50 | 149 | 0.0 | 1.0 | 0.00 | 0.05 | 0.05 | 53 | 1015.5 |
| 20260503033306 | 50 | 268 | 2.0 | 2.0 | 0.00 | 0.05 | 0.05 | 53 | 1015.6 |
| 20260503032805 | 50 | 171 | 0.0 | 1.0 | 0.00 | 0.05 | 0.05 | 54 | 1015.5 |
| 20260503032304 | 50 | 130 | 0.0 | 1.0 | 0.00 | 0.05 | 0.05 | 54 | 1015.4 |
| 20260503031800 | 50 | 182 | 0.0 | 0.0 | 0.00 | 0.05 | 0.05 | 54 | 1015.5 |
| 20260503031258 | 51 | 158 | 0.0 | 0.0 | 0.00 | 0.05 | 0.05 | 53 | 1015.6 |
| 20260503030754 | 51 | 8 | 0.0 | 0.0 | 0.00 | 0.05 | 0.05 | 53 | 1015.4 |
| 20260503030250 | 50 | 342 | 2.0 | 2.0 | 0.00 | 0.05 | 0.05 | 52 | 1015.5 |
| 20260503025747 | 51 | 177 | 0.0 | 0.0 | 0.00 | 0.05 | 0.05 | 52 | 1015.2 |
| 20260503025245 | 51 | 216 | 0.0 | 0.0 | 0.00 | 0.05 | 0.05 | 53 | 1015.5 |
| 20260503024741 | 51 | 234 | 1.0 | 1.0 | 0.00 | 0.05 | 0.05 | 52 | 1015.5 |
| 20260503024238 | 51 | 143 | 0.0 | 0.0 | 0.00 | 0.05 | 0.05 | 52 | 1015.5 |
| 20260503023735 | 51 | 286 | 1.0 | 1.0 | 0.00 | 0.05 | 0.05 | 51 | 1015.4 |
| 20260503023232 | 52 | 154 | 0.0 | 0.0 | 0.00 | 0.05 | 0.05 | 52 | 1015.6 |
| 20260503022728 | 52 | 319 | 4.0 | 4.0 | 0.00 | 0.05 | 0.05 | 50 | 1015.3 |
| 20260503022228 | 52 | 5 | 2.0 | 2.0 | 0.00 | 0.05 | 0.05 | 50 | 1015.4 |
| 20260503021725 | 52 | 359 | 2.0 | 3.0 | 0.00 | 0.05 | 0.05 | 50 | 1015.5 |
| 20260503021221 | 52 | 45 | 1.0 | 2.0 | 0.00 | 0.05 | 0.05 | 49 | 1015.5 |
| 20260503020719 | 53 | 2 | 3.0 | 3.0 | 0.00 | 0.05 | 0.05 | 48 | 1015.8 |
| 20260503020217 | 52 | 5 | 2.0 | 2.0 | 0.00 | 0.05 | 0.05 | 49 | 1015.9 |
| 20260503015713 | 53 | 42 | 3.0 | 4.0 | 0.00 | 0.05 | 0.05 | 48 | 1015.6 |
| 20260503015210 | 53 | 38 | 1.0 | 2.0 | 0.00 | 0.05 | 0.05 | 48 | 1015.6 |
| 20260503014706 | 53 | 170 | 0.0 | 1.0 | 0.00 | 0.05 | 0.05 | 49 | 1015.9 |
| 20260503014204 | 53 | 350 | 4.0 | 6.0 | 0.00 | 0.05 | 0.05 | 48 | 1015.5 |
| 20260503013701 | 53 | 112 | 1.0 | 1.0 | 0.00 | 0.05 | 0.05 | 48 | 1015.6 |
| 20260503013159 | 53 | 79 | 1.0 | 2.0 | 0.00 | 0.05 | 0.05 | 46 | 1015.9 |
| 20260503012656 | 53 | 91 | 2.0 | 2.0 | 0.00 | 0.05 | 0.05 | 47 | 1015.6 |
| 20260503012153 | 53 | 93 | 0.0 | 0.0 | 0.00 | 0.05 | 0.05 | 47 | 1015.7 |
| 20260503011648 | 53 | 150 | 1.0 | 1.0 | 0.00 | 0.05 | 0.05 | 46 | 1015.7 |
| 20260503011146 | 53 | 18 | 2.0 | 3.0 | 0.00 | 0.05 | 0.05 | 46 | 1015.5 |
| 20260503010642 | 53 | 337 | 2.0 | 2.0 | 0.00 | 0.05 | 0.05 | 45 | 1015.5 |
| 20260503010140 | 53 | 345 | 2.0 | 2.0 | 0.00 | 0.05 | 0.05 | 45 | 1015.3 |
| 20260503005637 | 53 | 6 | 2.0 | 2.0 | 0.00 | 0.05 | 0.05 | 45 | 1015.3 |
| 20260503005134 | 53 | 183 | 0.0 | 1.0 | 0.00 | 0.05 | 0.05 | 46 | 1015.5 |
| 20260503004630 | 53 | 194 | 0.0 | 1.0 | 0.00 | 0.05 | 0.05 | 46 | 1015.2 |
| 20260503004129 | 53 | 319 | 2.0 | 3.0 | 0.00 | 0.05 | 0.05 | 46 | 1015.3 |
| 20260503003625 | 53 | 69 | 1.0 | 1.0 | 0.00 | 0.05 | 0.05 | 47 | 1015.4 |
| 20260503003122 | 54 | 325 | 3.0 | 3.0 | 0.00 | 0.05 | 0.05 | 46 | 1015.1 |
| 20260503002619 | 54 | 127 | 1.0 | 1.0 | 0.00 | 0.05 | 0.05 | 47 | 1015.2 |
| 20260503002116 | 53 | 15 | 2.0 | 3.0 | 0.00 | 0.05 | 0.05 | 46 | 1015.1 |
| 20260503001612 | 53 | 20 | 2.0 | 2.0 | 0.00 | 0.05 | 0.05 | 51 | 1015.1 |
| 20260503001109 | 53 | 183 | 1.0 | 1.0 | 0.00 | 0.05 | 0.05 | 52 | 1015.1 |
| 20260503000607 | 53 | 181 | 0.0 | 0.0 | 0.00 | 0.05 | 0.05 | 51 | 1015.0 |
| 20260503000104 | 53 | 179 | 0.0 | 0.0 | 0.00 | 0.05 | 0.05 | 52 | 1015.0 |
| 20260502235600 | 53 | 175 | 0.0 | 1.0 | 0.00 | 0.05 | 0.05 | 50 | 1015.1 |
| 20260502235058 | 54 | 124 | 0.0 | 0.0 | 0.00 | 0.05 | 0.05 | 51 | 1015.0 |